Lubbock, TX

11:03 PM CST on November 12, 2019 (GMT -0600)
Lubbock International

Weather History for KLBB - May, 2019

Change the Weather History Date:

Monday, May 20, 2019

  Actual Average Record
Temperature  
Mean Temperature 75 °F 71 °F  
Max Temperature 88 °F 85 °F 102 °F (2006)
Min Temperature 62 °F 57 °F 40 °F (1931)
Degree Days  
Heating Degree Days 0 1  
Month to date heating degree days 52 33  
Since 1 July heating degree days 3449 3370  
Cooling Degree Days 10 7  
Month to date cooling degree days 79 99  
Year to date cooling degree days 142 155  
Growing Degree Days 25 (Base 50)    
Moisture  
Dew Point 60 °F    
Average Humidity 71    
Maximum Humidity 93    
Minimum Humidity 32    
Precipitation  
Precipitation 0.04 in 0.08 in 1.81 in (1941)
Month to date precipitation 0.73 1.29  
Year to date precipitation 3.65 5.20  
Snow  
Snow 0.00 in 0.00 in T in (1950)
Month to date snowfall T 0.0  
Since 1 July snowfall 10.1 8.2  
Snow Depth 0.00 in    
Sea Level Pressure  
Sea Level Pressure 29.59 in    
Wind  
Wind Speed 17 mph ()    
Max Wind Speed 48 mph    
Max Gust Speed 63 mph    
Visibility 8.6 miles    
Events Rain , Thunderstorm    
T = Trace of Precipitation, MM = Missing Value Source: Averaged Metar Reports

Daily Weather History Graph

Daily Weather History Graph

Search for Another Location

Airport or City:

Astronomy

May. 20, 2019 Rise Set
Actual Time 6:43 AM CDT 8:44 PM CDT
Civil Twilight 6:15 AM CDT 9:12 PM CDT
Nautical Twilight 5:41 AM CDT 9:46 PM CDT
Astronomical Twilight 5:05 AM CDT 10:22 PM CDT
Moon 10:45 PM CDT (5/20) 8:13 AM CDT (5/20)
Length of Visible Light 14h 56m
Length of Day
14h 01m
Waning Gibbous, 96% of the Moon is Illuminated
May 20
Waning Gibbous
May 26
Last Quarter
Jun 3
New
Jun 10
First Quarter
Jun 17
Full

Hourly Weather History & Observations

Time (CDT) Temp. Heat Index Dew Point Humidity Pressure Visibility Wind Dir Wind Speed Gust Speed Precip Events Conditions
12:53 AM 64.9 °F - 53.1 °F 65% 29.74 in 10.0 mi ESE 20.7 mph - N/A   Scattered Clouds
1:53 AM 64.9 °F - 53.1 °F 65% 29.72 in 10.0 mi SE 18.4 mph - N/A   Scattered Clouds
2:53 AM 64.0 °F - 54.0 °F 70% 29.69 in 10.0 mi ESE 19.6 mph - N/A   Mostly Cloudy
3:53 AM 64.0 °F - 55.0 °F 73% 29.67 in 10.0 mi SE 19.6 mph 27.6 mph N/A   Overcast
4:49 AM 64.4 °F - 55.4 °F 73% 29.78 in 10.0 mi SE 16.1 mph - N/A   Overcast
4:53 AM 64.0 °F - 55.9 °F 75% 29.64 in 10.0 mi SE 15.0 mph - N/A   Overcast
5:53 AM 64.9 °F - 59.0 °F 81% 29.64 in 10.0 mi SSE 18.4 mph - N/A   Overcast
6:53 AM 63.0 °F - 61.0 °F 93% 29.64 in 9.0 mi SE 13.8 mph - 0.00 in   Overcast
7:09 AM 64.0 °F - 61.0 °F 90% 29.76 in 9.0 mi SE 16.1 mph - 0.00 in Rain Light Rain
7:20 AM 64.0 °F - 61.0 °F 90% 29.76 in 8.0 mi SE 18.4 mph - 0.00 in   Overcast
7:53 AM 64.9 °F - 62.1 °F 90% 29.62 in 6.0 mi SE 17.3 mph - 0.00 in   Overcast
8:22 AM 64.9 °F - 62.1 °F 90% 29.75 in 6.0 mi SSE 16.1 mph - N/A   Overcast
8:53 AM 64.9 °F - 62.1 °F 90% 29.63 in 5.0 mi SE 13.8 mph - N/A   Overcast
9:19 AM 66.0 °F - 63.0 °F 90% 29.75 in 5.0 mi SE 11.5 mph - N/A   Overcast
9:47 AM 69.8 °F - 64.4 °F 83% 29.74 in 6.0 mi South 20.7 mph 27.6 mph N/A   Overcast
9:53 AM 72.0 °F - 66.0 °F 81% 29.61 in 6.0 mi South 21.9 mph 27.6 mph N/A   Overcast
10:13 AM 73.0 °F - 66.0 °F 79% 29.73 in 6.0 mi South 21.9 mph 32.2 mph N/A   Mostly Cloudy
10:53 AM 79.0 °F - 66.0 °F 64% 29.57 in 7.0 mi South 29.9 mph 36.8 mph N/A   Overcast
11:26 AM 80.1 °F 81.9 °F 64.9 °F 60% 29.70 in 8.0 mi South 28.8 mph 34.5 mph N/A   Mostly Cloudy
11:53 AM 82.0 °F 83.4 °F 64.0 °F 54% 29.55 in 8.0 mi SSW 23.0 mph 33.4 mph N/A   Mostly Cloudy
12:53 PM 84.0 °F 83.8 °F 59.0 °F 43% 29.52 in 10.0 mi SSW 23.0 mph 28.8 mph N/A   Mostly Cloudy
1:53 PM 87.1 °F 85.7 °F 55.9 °F 35% 29.48 in 10.0 mi South 24.2 mph - N/A   Mostly Cloudy
2:53 PM 86.0 °F 84.5 °F 55.0 °F 35% 29.46 in 10.0 mi SW 20.7 mph 29.9 mph N/A   Overcast
3:34 PM 84.9 °F 83.9 °F 57.0 °F 38% 29.55 in 10.0 mi SW 17.3 mph 29.9 mph 0.00 in Rain , Thunderstorm Light Thunderstorms and Rain
3:53 PM 80.1 °F 80.9 °F 60.1 °F 50% 29.40 in 10.0 mi WSW 13.8 mph - 0.00 in Rain , Thunderstorm Light Thunderstorms and Rain
4:13 PM 71.1 °F - 62.1 °F 73% 29.57 in 3.0 mi South 43.7 mph 62.1 mph 0.01 in Rain , Thunderstorm Heavy Thunderstorms and Rain
4:21 PM 64.0 °F - 57.9 °F 80% 29.57 in 7.0 mi SE 32.2 mph 63.3 mph 0.04 in Rain , Thunderstorm Light Thunderstorms and Rain
4:40 PM 68.0 °F - 60.8 °F 78% 29.57 in 10.0 mi South 16.1 mph 27.6 mph N/A Rain Light Rain
4:53 PM 66.9 °F - 61.0 °F 81% 29.44 in 10.0 mi SSE 15.0 mph - 0.04 in   Overcast
5:53 PM 72.0 °F - 61.0 °F 68% 29.43 in 10.0 mi SSE 17.3 mph - N/A   Overcast
6:53 PM 70.0 °F - 61.0 °F 73% 29.43 in 10.0 mi SSE 15.0 mph - N/A   Mostly Cloudy
7:53 PM 71.1 °F - 61.0 °F 70% 29.43 in 10.0 mi SSE 13.8 mph - N/A   Mostly Cloudy
8:53 PM 70.0 °F - 62.1 °F 76% 29.41 in 10.0 mi SSE 13.8 mph - N/A   Mostly Cloudy
9:53 PM 66.9 °F - 64.0 °F 90% 29.39 in 10.0 mi SSE 9.2 mph - N/A   Mostly Cloudy
10:53 PM 68.0 °F - 59.0 °F 73% 29.39 in 10.0 mi SSW 9.2 mph - N/A   Mostly Cloudy
11:53 PM 68.0 °F - 37.0 °F 32% 29.39 in 10.0 mi WNW 26.5 mph 38.0 mph N/A   Mostly Cloudy